Time,TemperatureF,DewpointF,PressureIn,WindDirection,WindDirectionDegrees,WindSpeedMPH,WindSpeedGustMPH,Humidity,HourlyPrecipIn,Conditions,Clouds,dailyrainin,SoftwareType,DateUTC
2013-02-26 00:10:00,38.9,25.0,29.90,ENE,78,7.0,8.0,57,0.00,,,0.00,weatherlink.com 1.10,2013-02-26 05:10:00,
2013-02-26 00:25:00,39.0,25.0,29.90,East,95,4.0,8.0,57,0.00,,,0.00,weatherlink.com 1.10,2013-02-26 05:25:00,
2013-02-26 00:40:00,39.3,25.0,29.87,ENE,63,9.0,11.0,56,0.00,,,0.00,weatherlink.com 1.10,2013-02-26 05:40:00,
2013-02-26 00:55:00,39.5,24.0,29.87,NE,52,8.0,12.0,55,0.00,,,0.00,weatherlink.com 1.10,2013-02-26 05:55:00,
2013-02-26 01:10:00,39.5,24.0,29.86,ENE,74,8.0,11.0,55,0.00,,,0.00,weatherlink.com 1.10,2013-02-26 06:10:00,
2013-02-26 01:25:00,39.8,25.0,29.86,ENE,63,5.0,11.0,55,0.00,,,0.00,weatherlink.com 1.10,2013-02-26 06:25:00,
2013-02-26 01:40:00,39.8,25.0,29.84,ENE,63,6.0,10.0,55,0.00,,,0.00,weatherlink.com 1.10,2013-02-26 06:40:00,
2013-02-26 01:55:00,39.7,25.0,29.82,ENE,71,5.0,12.0,56,0.00,,,0.00,weatherlink.com 1.10,2013-02-26 06:55:00,
2013-02-26 02:10:00,39.6,25.0,29.82,East,82,7.0,9.0,56,0.00,,,0.00,weatherlink.com 1.10,2013-02-26 07:10:00,
2013-02-26 02:25:00,39.5,25.0,29.81,East,86,7.0,8.0,57,0.00,,,0.00,weatherlink.com 1.10,2013-02-26 07:25:00,
2013-02-26 02:40:00,39.5,25.0,29.79,ENE,58,7.0,9.0,57,0.00,,,0.00,weatherlink.com 1.10,2013-02-26 07:40:00,
2013-02-26 02:55:00,39.4,26.0,29.80,SE,124,6.0,7.0,58,0.00,,,0.00,weatherlink.com 1.10,2013-02-26 07:55:00,
2013-02-26 03:10:00,39.5,26.0,29.79,ENE,74,6.0,7.0,58,0.00,,,0.00,weatherlink.com 1.10,2013-02-26 08:10:00,
2013-02-26 03:25:00,39.7,26.0,29.77,ENE,78,6.0,10.0,58,0.00,,,0.00,weatherlink.com 1.10,2013-02-26 08:25:00,
2013-02-26 03:40:00,39.7,26.0,29.75,ENE,72,5.0,9.0,58,0.00,,,0.00,weatherlink.com 1.10,2013-02-26 08:40:00,
2013-02-26 03:55:00,39.8,26.0,29.73,East,94,8.0,10.0,58,0.00,,,0.00,weatherlink.com 1.10,2013-02-26 08:55:00,
2013-02-26 04:10:00,40.0,27.0,29.72,East,97,8.0,10.0,59,0.00,,,0.00,weatherlink.com 1.10,2013-02-26 09:10:00,
2013-02-26 04:29:00,40.2,27.0,29.72,ENE,69,3.0,10.0,59,0.00,,,0.00,weatherlink.com 1.10,2013-02-26 09:29:00,
2013-02-26 04:41:00,40.4,27.0,29.71,NE,36,3.0,9.0,59,0.00,,,0.00,weatherlink.com 1.10,2013-02-26 09:41:00,
2013-02-26 04:56:00,40.4,27.0,29.69,East,96,4.0,8.0,60,0.00,,,0.00,weatherlink.com 1.10,2013-02-26 09:56:00,
2013-02-26 05:11:00,39.5,30.0,29.69,East,96,7.0,9.0,69,0.00,,,0.00,weatherlink.com 1.10,2013-02-26 10:11:00,
2013-02-26 05:26:00,38.4,31.0,29.69,NE,51,4.0,8.0,75,0.01,,,0.01,weatherlink.com 1.10,2013-02-26 10:26:00,
2013-02-26 05:41:00,38.3,32.0,29.70,ENE,75,3.0,7.0,77,0.02,,,0.02,weatherlink.com 1.10,2013-02-26 10:41:00,
2013-02-26 05:56:00,37.9,33.0,29.70,ENE,75,3.0,5.0,81,0.04,,,0.04,weatherlink.com 1.10,2013-02-26 10:56:00,
2013-02-26 06:11:00,37.4,33.0,29.69,NE,50,7.0,11.0,83,0.06,,,0.06,weatherlink.com 1.10,2013-02-26 11:11:00,
2013-02-26 06:26:00,37.2,33.0,29.65,NE,56,10.0,11.0,85,0.06,,,0.08,weatherlink.com 1.10,2013-02-26 11:26:00,
2013-02-26 06:41:00,37.0,33.0,29.64,ENE,64,8.0,12.0,86,0.07,,,0.09,weatherlink.com 1.10,2013-02-26 11:41:00,
2013-02-26 06:56:00,36.9,34.0,29.65,ENE,62,7.0,12.0,88,0.06,,,0.10,weatherlink.com 1.10,2013-02-26 11:56:00,
2013-02-26 07:11:00,37.1,34.0,29.63,ENE,70,6.0,10.0,88,0.04,,,0.10,weatherlink.com 1.10,2013-02-26 12:11:00,
2013-02-26 07:26:00,37.6,34.0,29.62,NE,47,10.0,10.0,87,0.02,,,0.10,weatherlink.com 1.10,2013-02-26 12:26:00,
2013-02-26 07:41:00,37.8,34.0,29.60,ENE,64,4.0,10.0,87,0.01,,,0.10,weatherlink.com 1.10,2013-02-26 12:41:00,
2013-02-26 07:56:00,38.3,35.0,29.60,ENE,75,7.0,13.0,86,0.00,,,0.10,weatherlink.com 1.10,2013-02-26 12:56:00,
2013-02-26 08:11:00,39.0,35.0,29.60,ENE,72,8.0,12.0,84,0.00,,,0.10,weatherlink.com 1.10,2013-02-26 13:11:00,
2013-02-26 08:26:00,39.1,35.0,29.59,NE,54,10.0,14.0,84,0.01,,,0.11,weatherlink.com 1.10,2013-02-26 13:26:00,
2013-02-26 08:41:00,39.2,35.0,29.59,ENE,65,10.0,12.0,85,0.01,,,0.11,weatherlink.com 1.10,2013-02-26 13:41:00,
2013-02-26 08:56:00,39.8,36.0,29.57,East,95,8.0,16.0,85,0.01,,,0.11,weatherlink.com 1.10,2013-02-26 13:56:00,
2013-02-26 09:11:00,40.3,36.0,29.57,ENE,76,7.0,14.0,84,0.01,,,0.11,weatherlink.com 1.10,2013-02-26 14:11:00,
2013-02-26 09:26:00,39.9,36.0,29.55,ENE,60,8.0,13.0,87,0.01,,,0.12,weatherlink.com 1.10,2013-02-26 14:26:00,
2013-02-26 09:41:00,40.0,37.0,29.54,ENE,75,6.0,11.0,89,0.02,,,0.13,weatherlink.com 1.10,2013-02-26 14:41:00,
2013-02-26 09:56:00,40.4,38.0,29.53,SE,126,9.0,10.0,89,0.02,,,0.13,weatherlink.com 1.10,2013-02-26 14:56:00,
2013-02-26 10:11:00,41.1,38.0,29.53,East,79,8.0,13.0,89,0.02,,,0.13,weatherlink.com 1.10,2013-02-26 15:11:00,
2013-02-26 10:26:00,41.4,39.0,29.51,ENE,71,8.0,9.0,91,0.02,,,0.14,weatherlink.com 1.10,2013-02-26 15:26:00,
2013-02-26 10:41:00,42.2,40.0,29.51,ENE,72,7.0,12.0,92,0.01,,,0.14,weatherlink.com 1.10,2013-02-26 15:41:00,
2013-02-26 10:57:00,42.7,41.0,29.50,East,95,8.0,10.0,92,0.01,,,0.14,weatherlink.com 1.10,2013-02-26 15:57:00,
2013-02-26 11:12:00,44.0,42.0,29.50,ENE,72,9.0,12.0,91,0.01,,,0.14,weatherlink.com 1.10,2013-02-26 16:12:00,
2013-02-26 11:27:00,45.4,42.0,29.49,ENE,78,9.0,11.0,89,0.00,,,0.14,weatherlink.com 1.10,2013-02-26 16:27:00,
2013-02-26 11:42:00,46.0,43.0,29.49,East,89,7.0,15.0,89,0.00,,,0.14,weatherlink.com 1.10,2013-02-26 16:42:00,
2013-02-26 11:57:00,46.1,43.0,29.48,East,99,15.0,16.0,89,0.01,,,0.15,weatherlink.com 1.10,2013-02-26 16:57:00,
2013-02-26 12:12:00,45.8,43.0,29.47,East,91,9.0,16.0,91,0.02,,,0.16,weatherlink.com 1.10,2013-02-26 17:12:00,
2013-02-26 12:27:00,46.5,44.0,29.48,East,99,6.0,11.0,91,0.02,,,0.16,weatherlink.com 1.10,2013-02-26 17:27:00,
2013-02-26 12:42:00,47.2,45.0,29.46,ESE,110,11.0,12.0,91,0.03,,,0.17,weatherlink.com 1.10,2013-02-26 17:42:00,
2013-02-26 12:57:00,47.9,46.0,29.44,East,92,7.0,8.0,91,0.02,,,0.17,weatherlink.com 1.10,2013-02-26 17:57:00,
2013-02-26 13:12:00,48.5,46.0,29.43,East,86,7.0,12.0,91,0.01,,,0.17,weatherlink.com 1.10,2013-02-26 18:12:00,
2013-02-26 13:27:00,49.2,46.0,29.42,ENE,72,8.0,10.0,89,0.01,,,0.17,weatherlink.com 1.10,2013-02-26 18:27:00,
2013-02-26 13:42:00,49.9,47.0,29.41,ESE,103,6.0,14.0,88,0.00,,,0.17,weatherlink.com 1.10,2013-02-26 18:42:00,
2013-02-26 13:57:00,50.4,47.0,29.40,East,81,4.0,10.0,88,0.01,,,0.18,weatherlink.com 1.10,2013-02-26 18:57:00,
2013-02-26 14:12:00,50.8,47.0,29.39,East,79,7.0,10.0,87,0.01,,,0.18,weatherlink.com 1.10,2013-02-26 19:12:00,
2013-02-26 14:27:00,50.7,48.0,29.39,East,94,8.0,11.0,89,0.02,,,0.19,weatherlink.com 1.10,2013-02-26 19:27:00,
2013-02-26 14:42:00,50.3,48.0,29.38,ESE,105,14.0,14.0,91,0.02,,,0.19,weatherlink.com 1.10,2013-02-26 19:42:00,
2013-02-26 14:57:00,50.0,48.0,29.38,East,96,10.0,15.0,92,0.01,,,0.19,weatherlink.com 1.10,2013-02-26 19:57:00,
2013-02-26 15:12:00,49.5,48.0,29.38,SE,129,6.0,15.0,94,0.01,,,0.19,weatherlink.com 1.10,2013-02-26 20:12:00,
2013-02-26 15:27:00,49.3,48.0,29.37,ESE,108,11.0,12.0,96,0.00,,,0.19,weatherlink.com 1.10,2013-02-26 20:27:00,
2013-02-26 15:42:00,49.3,48.0,29.37,ESE,110,7.0,14.0,96,0.01,,,0.20,weatherlink.com 1.10,2013-02-26 20:42:00,
2013-02-26 15:57:00,49.2,48.0,29.37,East,91,7.0,11.0,97,0.02,,,0.21,weatherlink.com 1.10,2013-02-26 20:57:00,
2013-02-26 16:12:00,49.2,48.0,29.37,ESE,118,4.0,5.0,97,0.07,,,0.26,weatherlink.com 1.10,2013-02-26 21:12:00,
2013-02-26 16:27:00,49.1,48.0,29.38,WSW,250,4.0,7.0,97,0.16,,,0.35,weatherlink.com 1.10,2013-02-26 21:27:00,
2013-02-26 16:42:00,49.3,49.0,29.38,SE,144,4.0,9.0,97,0.18,,,0.38,weatherlink.com 1.10,2013-02-26 21:42:00,
2013-02-26 16:57:00,49.5,49.0,29.39,SE,141,5.0,8.0,97,0.19,,,0.40,weatherlink.com 1.10,2013-02-26 21:57:00,
2013-02-26 17:12:00,49.6,49.0,29.38,SE,138,4.0,7.0,97,0.15,,,0.41,weatherlink.com 1.10,2013-02-26 22:12:00,
2013-02-26 17:27:00,49.9,49.0,29.39,SSE,154,4.0,8.0,97,0.07,,,0.42,weatherlink.com 1.10,2013-02-26 22:27:00,
2013-02-26 17:42:00,49.9,49.0,29.40,SSE,156,5.0,9.0,96,0.05,,,0.43,weatherlink.com 1.10,2013-02-26 22:42:00,
2013-02-26 17:57:00,48.7,47.0,29.42,WNW,287,11.0,18.0,92,0.04,,,0.44,weatherlink.com 1.10,2013-02-26 22:57:00,
2013-02-26 18:13:00,47.3,45.0,29.44,WSW,252,5.0,12.0,90,0.03,,,0.44,weatherlink.com 1.10,2013-02-26 23:13:00,
2013-02-26 18:28:00,46.7,44.0,29.45,West,263,6.0,14.0,90,0.02,,,0.44,weatherlink.com 1.10,2013-02-26 23:28:00,
2013-02-26 18:43:00,46.1,44.0,29.46,WSW,238,4.0,11.0,92,0.02,,,0.45,weatherlink.com 1.10,2013-02-26 23:43:00,
2013-02-26 18:58:00,45.5,44.0,29.46,SW,224,3.0,7.0,93,0.02,,,0.46,weatherlink.com 1.10,2013-02-26 23:58:00,
2013-02-26 19:13:00,45.1,43.0,29.47,SW,224,3.0,6.0,93,0.02,,,0.46,weatherlink.com 1.10,2013-02-27 00:13:00,
2013-02-26 19:28:00,45.0,43.0,29.48,SSW,193,3.0,8.0,93,0.02,,,0.46,weatherlink.com 1.10,2013-02-27 00:28:00,
2013-02-26 19:43:00,44.8,43.0,29.48,SW,217,3.0,9.0,94,0.01,,,0.46,weatherlink.com 1.10,2013-02-27 00:43:00,
2013-02-26 19:58:00,44.7,43.0,29.49,SSE,158,3.0,8.0,94,0.00,,,0.46,weatherlink.com 1.10,2013-02-27 00:58:00,
2013-02-26 20:13:00,44.5,43.0,29.49,SSW,210,3.0,6.0,94,0.00,,,0.46,weatherlink.com 1.10,2013-02-27 01:13:00,
2013-02-26 20:28:00,44.4,43.0,29.50,South,188,5.0,11.0,95,0.00,,,0.46,weatherlink.com 1.10,2013-02-27 01:28:00,
2013-02-26 20:43:00,44.4,43.0,29.50,SW,217,6.0,11.0,94,0.00,,,0.46,weatherlink.com 1.10,2013-02-27 01:43:00,
2013-02-26 20:58:00,44.3,43.0,29.51,SW,219,4.0,8.0,94,0.00,,,0.46,weatherlink.com 1.10,2013-02-27 01:58:00,
2013-02-26 21:13:00,44.3,43.0,29.51,SW,235,4.0,6.0,94,0.00,,,0.46,weatherlink.com 1.10,2013-02-27 02:13:00,
2013-02-26 21:28:00,44.3,43.0,29.51,SSW,209,3.0,10.0,94,0.00,,,0.46,weatherlink.com 1.10,2013-02-27 02:28:00,
2013-02-26 21:43:00,44.0,42.0,29.51,SSW,203,4.0,7.0,94,0.00,,,0.46,weatherlink.com 1.10,2013-02-27 02:43:00,
2013-02-26 21:58:00,43.4,42.0,29.52,South,183,6.0,18.0,94,0.01,,,0.47,weatherlink.com 1.10,2013-02-27 02:58:00,
2013-02-26 22:13:00,42.9,41.0,29.52,South,188,3.0,12.0,93,0.01,,,0.47,weatherlink.com 1.10,2013-02-27 03:13:00,
2013-02-26 22:28:00,42.5,41.0,29.53,SSW,208,5.0,13.0,93,0.01,,,0.47,weatherlink.com 1.10,2013-02-27 03:28:00,
2013-02-26 22:43:00,42.0,40.0,29.53,SSW,200,3.0,10.0,94,0.02,,,0.48,weatherlink.com 1.10,2013-02-27 03:43:00,
2013-02-26 22:58:00,41.7,40.0,29.53,SSW,197,4.0,8.0,95,0.01,,,0.48,weatherlink.com 1.10,2013-02-27 03:58:00,
2013-02-26 23:13:00,41.6,40.0,29.53,SW,235,4.0,9.0,95,0.02,,,0.49,weatherlink.com 1.10,2013-02-27 04:13:00,
2013-02-26 23:28:00,41.5,40.0,29.53,SSW,210,7.0,10.0,95,0.02,,,0.49,weatherlink.com 1.10,2013-02-27 04:28:00,
2013-02-26 23:43:00,41.4,40.0,29.53,SSW,200,2.0,10.0,95,0.01,,,0.49,weatherlink.com 1.10,2013-02-27 04:43:00,
2013-02-26 23:58:00,41.4,40.0,29.53,SSW,192,5.0,10.0,95,0.01,,,0.49,weatherlink.com 1.10,2013-02-27 04:58:00,